K5NCO Weather Reports


time (UTC)temp
C
wind
direction
speed
KPH
gust
KPH
rain 1hr
cm
rain 24hr
cm
rain mn
cm
humidity
%
barometer
mb
20260906034548 28 84 6.4 6.4 0.00 0.00 0.00 69 1015.3
20260906034037 29 104 12.9 12.9 0.00 0.00 0.00 69 1015.0
20260906033532 29 71 1.6 1.6 0.00 0.00 0.00 68 1015.0
20260906033027 29 87 12.9 20.9 0.00 0.00 0.00 68 1015.0
20260906032524 29 90 9.7 12.9 0.00 0.00 0.00 67 1015.0
20260906032019 30 84 8.0 12.9 0.00 0.00 0.00 66 1014.9
20260906031515 30 49 8.0 12.9 0.00 0.00 0.00 65 1014.9
20260906031009 30 127 14.5 16.1 0.00 0.00 0.00 65 1014.7
20260906030503 30 98 9.7 14.5 0.00 0.00 0.00 64 1014.7
20260906030003 30 56 3.2 6.4 0.00 0.00 0.00 64 1014.6
20260906025502 30 105 11.3 17.7 0.00 0.00 0.00 64 1014.5
20260906025001 30 53 8.0 12.9 0.00 0.00 0.00 63 1014.6
20260906024456 30 64 4.8 9.7 0.00 0.00 0.00 63 1014.3
20260906023955 30 93 9.7 12.9 0.00 0.00 0.00 62 1014.2
20260906023453 31 37 6.4 11.3 0.00 0.00 0.00 61 1014.0
20260906022953 31 74 11.3 16.1 0.00 0.00 0.00 60 1013.8
20260906022442 31 83 11.3 16.1 0.00 0.00 0.00 60 1013.7
20260906021937 31 100 11.3 16.1 0.00 0.00 0.00 59 1013.7
20260906021432 31 80 3.2 4.8 0.00 0.00 0.00 58 1013.5
20260906020926 31 117 1.6 3.2 0.00 0.00 0.00 58 1013.5
20260906020421 31 99 6.4 6.4 0.00 0.00 0.00 57 1013.2
20260906015915 31 85 9.7 14.5 0.00 0.00 0.00 57 1013.0
20260906015414 32 89 6.4 9.7 0.00 0.00 0.00 56 1013.1
20260906014909 32 76 14.5 20.9 0.00 0.00 0.00 56 1012.9
20260906014408 32 85 11.3 12.9 0.00 0.00 0.00 56 1012.9
20260906013905 32 83 12.9 20.9 0.00 0.00 0.00 56 1013.0
20260906013400 32 59 16.1 17.7 0.00 0.00 0.00 55 1012.8
20260906012855 32 83 8.0 11.3 0.00 0.00 0.00 55 1012.9
20260906012350 32 67 12.9 20.9 0.00 0.00 0.00 55 1012.6
20260906011850 32 98 8.0 11.3 0.00 0.00 0.00 55 1012.8
20260906011345 32 90 19.3 22.5 0.00 0.00 0.00 54 1012.5
20260906010841 32 40 6.4 11.3 0.00 0.00 0.00 54 1012.7
20260906010336 33 115 8.0 9.7 0.00 0.00 0.00 53 1012.6
20260906005832 33 79 3.2 4.8 0.00 0.00 0.00 53 1012.8
20260906005331 33 127 12.9 17.7 0.00 0.00 0.00 52 1012.6
20260906004830 33 50 19.3 24.1 0.00 0.00 0.00 51 1012.7
20260906004330 33 76 8.0 20.9 0.00 0.00 0.00 51 1012.7
20260906003825 33 105 6.4 9.7 0.00 0.00 0.00 50 1012.7
20260906003320 34 67 6.4 11.3 0.00 0.00 0.00 50 1012.5
20260906002816 34 26 4.8 6.4 0.00 0.00 0.00 50 1012.5
20260906002315 34 90 8.0 12.9 0.00 0.00 0.00 49 1012.4
20260906001812 34 69 9.7 12.9 0.00 0.00 0.00 48 1012.6
20260906001307 34 114 4.8 9.7 0.00 0.00 0.00 49 1012.5
20260906000807 34 54 9.7 12.9 0.00 0.00 0.00 48 1012.3
20260906000303 34 57 17.7 22.5 0.00 0.00 0.00 48 1012.7
20260905235756 35 98 9.7 17.7 0.00 0.00 0.00 47 1012.4
20260905235256 35 73 9.7 14.5 0.00 0.00 0.00 46 1012.5
20260905234752 35 88 11.3 20.9 0.00 0.00 0.00 46 1012.3
20260905234246 35 71 6.4 11.3 0.00 0.00 0.00 46 1012.4
20260905233742 35 103 16.1 17.7 0.00 0.00 0.00 44 1012.1
20260905233242 35 98 9.7 11.3 0.00 0.00 0.00 42 1012.2
20260905232736 35 80 6.4 6.4 0.00 0.00 0.00 42 1012.1
20260905232232 36 97 4.8 9.7 0.00 0.00 0.00 42 1012.1
20260905231728 35 120 9.7 12.9 0.00 0.00 0.00 41 1012.2
20260905231223 35 101 11.3 11.3 0.00 0.00 0.00 42 1012.0
20260905230719 36 97 6.4 6.4 0.00 0.00 0.00 40 1012.1
20260905230217 36 80 1.6 3.2 0.00 0.00 0.00 41 1012.3
20260905225716 35 54 3.2 4.8 0.00 0.00 0.00 43 1012.2
20260905225212 35 89 8.0 9.7 0.00 0.00 0.00 43 1012.3
20260905224711 35 95 3.2 3.2 0.00 0.00 0.00 43 1012.2
20260905224206 36 129 4.8 6.4 0.00 0.00 0.00 41 1012.1
20260905223703 36 344 0.0 0.0 0.00 0.00 0.00 42 1012.2
20260905223159 36 285 3.2 3.2 0.00 0.00 0.00 41 1012.2
20260905222654 36 110 0.0 0.0 0.00 0.00 0.00 41 1012.2
20260905222148 36 56 6.4 9.7 0.00 0.00 0.00 40 1012.4
20260905221644 36 92 1.6 1.6 0.00 0.00 0.00 40 1012.4
20260905221141 36 197 6.4 11.3 0.00 0.00 0.00 41 1012.2
20260905220636 36 96 11.3 12.9 0.00 0.00 0.00 40 1012.5
20260905220132 36 258 0.0 0.0 0.00 0.00 0.00 39 1012.4
20260905215631 36 130 4.8 6.4 0.00 0.00 0.00 40 1012.4
20260905215127 36 131 0.0 0.0 0.00 0.00 0.00 41 1012.5
20260905214623 35 141 0.0 0.0 0.00 0.00 0.00 42 1012.4
20260905214118 35 163 0.0 0.0 0.00 0.00 0.00 41 1012.5
20260905213613 36 83 3.2 4.8 0.00 0.00 0.00 41 1012.4
20260905213108 35 93 6.4 11.3 0.00 0.00 0.00 41 1012.4
20260905212603 35 117 9.7 11.3 0.00 0.00 0.00 42 1012.4
20260905212103 35 59 3.2 6.4 0.00 0.00 0.00 42 1012.6
20260905211558 35 31 3.2 4.8 0.00 0.00 0.00 43 1012.8
20260905211053 36 134 4.8 6.4 0.00 0.00 0.00 43 1012.7
20260905210549 36 111 0.0 0.0 0.00 0.00 0.00 41 1012.8
20260905210044 36 66 0.0 0.0 0.00 0.00 0.00 41 1013.0
20260905205543 36 215 0.0 0.0 0.00 0.00 0.00 40 1012.7
20260905205043 36 120 9.7 11.3 0.00 0.00 0.00 42 1013.0
20260905204538 36 152 6.4 9.7 0.00 0.00 0.00 41 1013.0
20260905204033 36 253 0.0 0.0 0.00 0.00 0.00 41 1013.2
20260905203533 36 33 0.0 1.6 0.00 0.00 0.00 41 1013.4
20260905203028 35 14 4.8 6.4 0.00 0.00 0.00 43 1013.4
20260905202523 35 32 0.0 0.0 0.00 0.00 0.00 45 1013.4
20260905202019 35 68 1.6 4.8 0.00 0.00 0.00 45 1013.6
20260905201514 35 111 6.4 11.3 0.00 0.00 0.00 42 1013.6
20260905201014 35 104 3.2 6.4 0.00 0.00 0.00 42 1013.7
20260905200509 35 69 1.6 4.8 0.00 0.00 0.00 44 1013.7
20260905200008 35 46 4.8 6.4 0.00 0.00 0.00 43 1013.9
20260905195502 35 104 4.8 4.8 0.00 0.00 0.00 44 1014.0
20260905194958 35 221 0.0 0.0 0.00 0.00 0.00 44 1013.9
20260905194452 34 219 4.8 6.4 0.00 0.00 0.00 45 1014.3
20260905193946 35 174 8.0 9.7 0.00 0.00 0.00 45 1014.2
20260905193441 35 111 6.4 11.3 0.00 0.00 0.00 44 1014.3
20260905192936 35 165 6.4 9.7 0.00 0.00 0.00 45 1014.3
20260905192431 34 190 14.5 16.1 0.00 0.00 0.00 46 1014.5
20260905191926 35 135 12.9 16.1 0.00 0.00 0.00 46 1014.5
20260905191425 35 27 1.6 1.6 0.00 0.00 0.00 46 1014.6
20260905190920 35 82 6.4 9.7 0.00 0.00 0.00 46 1014.6
20260905190418 34 229 3.2 3.2 0.00 0.00 0.00 46 1014.9
20260905185917 34 113 6.4 9.7 0.00 0.00 0.00 47 1015.0
20260905185412 34 188 9.7 11.3 0.00 0.00 0.00 46 1015.1
20260905184910 33 308 3.2 3.2 0.00 0.00 0.00 48 1015.3
20260905184405 33 169 12.9 14.5 0.00 0.00 0.00 48 1015.2
20260905183903 34 141 3.2 4.8 0.00 0.00 0.00 49 1015.3
20260905183359 33 96 3.2 6.4 0.00 0.00 0.00 51 1015.4
20260905182853 33 83 11.3 12.9 0.00 0.00 0.00 48 1015.4
20260905182347 33 120 9.7 11.3 0.00 0.00 0.00 51 1015.5
20260905181842 33 165 3.2 4.8 0.00 0.00 0.00 50 1015.7
20260905181337 33 206 9.7 11.3 0.00 0.00 0.00 47 1015.8
20260905180836 33 172 9.7 12.9 0.00 0.00 0.00 50 1015.8
20260905180331 33 84 6.4 6.4 0.00 0.00 0.00 53 1016.0
20260905175825 33 245 4.8 4.8 0.00 0.00 0.00 51 1016.0
20260905175320 32 173 8.0 12.9 0.00 0.00 0.00 52 1016.0
20260905174815 32 189 11.3 12.9 0.00 0.00 0.00 51 1015.9
20260905174311 32 178 8.0 9.7 0.00 0.00 0.00 51 1016.2
20260905173807 32 144 9.7 11.3 0.00 0.00 0.00 52 1016.3
20260905173303 32 170 8.0 11.3 0.00 0.00 0.00 55 1016.2
20260905172803 32 76 14.5 17.7 0.00 0.00 0.00 54 1016.2
20260905172301 32 110 3.2 6.4 0.00 0.00 0.00 56 1016.5
20260905171757 32 158 6.4 11.3 0.00 0.00 0.00 55 1016.6
20260905171253 31 147 8.0 9.7 0.00 0.00 0.00 58 1016.7
20260905170750 32 68 3.2 4.8 0.00 0.00 0.00 58 1016.6
20260905170245 32 214 8.0 12.9 0.00 0.00 0.00 56 1016.8
20260905165744 31 125 6.4 11.3 0.00 0.00 0.00 60 1016.8
20260905165240 32 120 11.3 14.5 0.00 0.00 0.00 59 1016.7
20260905164734 31 192 8.0 9.7 0.00 0.00 0.00 62 1016.9
20260905164229 31 103 6.4 11.3 0.00 0.00 0.00 63 1016.7
20260905163725 31 162 9.7 11.3 0.00 0.00 0.00 65 1016.9
20260905163221 31 97 6.4 9.7 0.00 0.00 0.00 63 1017.0
20260905162717 31 209 9.7 12.9 0.00 0.00 0.00 65 1016.8
20260905162216 31 183 3.2 4.8 0.00 0.00 0.00 66 1016.9
20260905161711 31 120 9.7 12.9 0.00 0.00 0.00 65 1016.6
20260905161209 31 141 6.4 6.4 0.00 0.00 0.00 67 1016.8
20260905160708 31 128 3.2 3.2 0.00 0.00 0.00 67 1016.8
20260905160202 31 187 1.6 1.6 0.00 0.00 0.00 68 1016.8
20260905155701 30 167 8.0 11.3 0.00 0.00 0.00 69 1016.8
20260905155201 30 187 12.9 14.5 0.00 0.00 0.00 69 1016.8
20260905154656 30 170 8.0 11.3 0.00 0.00 0.00 70 1017.0
20260905154151 30 145 3.2 3.2 0.00 0.00 0.00 70 1016.7
20260905153648 30 172 6.4 9.7 0.00 0.00 0.00 70 1016.8
20260905153142 30 275 6.4 6.4 0.00 0.00 0.00 72 1016.8
20260905152637 30 155 9.7 11.3 0.00 0.00 0.00 72 1016.5
20260905152131 30 204 9.7 12.9 0.00 0.00 0.00 71 1016.8
20260905151626 30 180 8.0 9.7 0.00 0.00 0.00 71 1016.8
20260905151122 30 186 6.4 6.4 0.00 0.00 0.00 71 1016.9
20260905150617 29 207 1.6 1.6 0.00 0.00 0.00 74 1016.7
20260905150115 29 163 9.7 11.3 0.00 0.00 0.00 74 1016.8
20260905145609 28 208 3.2 4.8 0.00 0.00 0.00 78 1016.8
20260905145108 28 212 9.7 11.3 0.00 0.00 0.00 78 1016.8
20260905144603 28 164 9.7 11.3 0.00 0.00 0.00 76 1016.7
20260905144102 28 320 6.4 6.4 0.00 0.00 0.00 76 1016.6
20260905143601 28 111 1.6 3.2 0.00 0.00 0.00 82 1016.6
20260905143057 28 207 1.6 1.6 0.00 0.00 0.00 81 1016.6
20260905142555 28 112 3.2 3.2 0.00 0.00 0.00 83 1016.7
20260905142050 28 100 6.4 6.4 0.00 0.00 0.00 82 1016.6
20260905141545 27 215 8.0 9.7 0.00 0.00 0.00 84 1016.7
20260905141041 27 210 6.4 6.4 0.00 0.00 0.00 84 1016.8
20260905140536 27 229 6.4 6.4 0.00 0.00 0.00 85 1016.7
20260905140035 27 190 4.8 6.4 0.00 0.00 0.00 86 1016.5
20260905135530 27 178 1.6 1.6 0.00 0.00 0.00 87 1016.8
20260905135025 27 180 8.0 9.7 0.00 0.00 0.00 87 1016.5
20260905134520 27 191 3.2 3.2 0.00 0.00 0.00 87 1016.5
20260905134019 27 217 3.2 3.2 0.00 0.00 0.00 87 1016.4
20260905133514 27 266 1.6 1.6 0.00 0.00 0.00 87 1016.4
20260905133013 27 124 4.8 4.8 0.00 0.00 0.00 89 1016.4
20260905132509 27 100 3.2 4.8 0.00 0.00 0.00 89 1016.4
20260905132009 26 119 4.8 4.8 0.00 0.00 0.00 90 1016.3
20260905131504 26 150 3.2 3.2 0.00 0.00 0.00 89 1016.2
20260905130959 26 90 0.0 0.0 0.00 0.00 0.00 90 1016.2
20260905123621 25 132 0.0 0.0 0.00 0.00 0.00 94 1015.6
20260905123118 25 132 0.0 0.0 0.00 0.00 0.00 94 1015.6
20260905122612 25 132 0.0 0.0 0.00 0.00 0.00 94 1015.6
20260905122106 25 148 0.0 0.0 0.00 0.00 0.00 94 1015.8
20260905121556 25 149 4.8 4.8 0.00 0.00 0.00 94 1015.7
20260905121051 25 109 1.6 1.6 0.00 0.00 0.00 94 1015.6
20260905120550 25 98 0.0 0.0 0.00 0.00 0.00 94 1015.5
20260905120046 25 100 0.0 0.0 0.00 0.00 0.00 94 1015.4
20260905115544 25 136 0.0 0.0 0.00 0.00 0.00 93 1015.4
20260905115039 25 136 0.0 0.0 0.00 0.00 0.00 93 1015.3
20260905114538 25 136 0.0 0.0 0.00 0.00 0.00 93 1015.4
20260905114037 25 136 0.0 0.0 0.00 0.00 0.00 93 1015.5
20260905113532 25 134 0.0 0.0 0.00 0.00 0.00 93 1015.5
20260905113028 25 133 0.0 0.0 0.00 0.00 0.00 93 1015.4
20260905112523 25 162 0.0 0.0 0.00 0.00 0.00 93 1015.3
20260905112019 25 160 0.0 0.0 0.00 0.00 0.00 93 1015.3
20260905111513 25 189 0.0 0.0 0.00 0.00 0.00 93 1015.4
20260905111013 25 206 0.0 0.0 0.00 0.00 0.00 93 1015.4
20260905110512 25 220 0.0 0.0 0.00 0.00 0.00 93 1015.3
20260905110007 25 133 0.0 0.0 0.00 0.00 0.00 92 1015.4
20260905105502 25 143 0.0 0.0 0.00 0.00 0.00 92 1015.3
20260905105001 25 223 0.0 0.0 0.00 0.00 0.00 92 1015.4
20260905104456 25 234 0.0 0.0 0.00 0.00 0.00 92 1015.3
20260905103951 25 218 0.0 0.0 0.00 0.00 0.00 92 1015.2
20260905103446 25 182 0.0 0.0 0.00 0.00 0.00 92 1015.1
20260905102942 25 191 0.0 0.0 0.00 0.00 0.00 92 1015.2
20260905102438 25 224 0.0 0.0 0.00 0.00 0.00 92 1015.1
20260905101933 25 226 0.0 0.0 0.00 0.00 0.00 92 1015.3
20260905101432 25 231 0.0 0.0 0.00 0.00 0.00 92 1015.2
20260905100927 25 230 0.0 0.0 0.00 0.00 0.00 92 1015.3
20260905100422 25 194 0.0 0.0 0.00 0.00 0.00 92 1015.1
20260905095921 25 211 0.0 0.0 0.00 0.00 0.00 92 1015.1
20260905095416 25 208 0.0 1.6 0.00 0.00 0.00 92 1015.0
20260905094910 25 187 0.0 1.6 0.00 0.00 0.00 91 1015.0
20260905094406 25 239 0.0 0.0 0.00 0.00 0.00 91 1015.1
20260905093904 25 276 0.0 0.0 0.00 0.00 0.00 91 1015.1
20260905093355 25 276 0.0 0.0 0.00 0.00 0.00 91 1015.0
20260905092850 25 277 0.0 0.0 0.00 0.00 0.00 90 1015.1
20260905092345 25 277 0.0 0.0 0.00 0.00 0.00 90 1015.1
20260905091840 25 276 0.0 0.0 0.00 0.00 0.00 90 1015.2
20260905091340 25 238 0.0 0.0 0.00 0.00 0.00 90 1015.2
20260905090838 26 219 0.0 0.0 0.00 0.00 0.00 90 1015.1
20260905090335 26 184 0.0 0.0 0.00 0.00 0.00 89 1015.0
20260905085834 26 204 0.0 0.0 0.00 0.00 0.00 89 1015.0
20260905085334 26 194 1.6 1.6 0.00 0.00 0.00 89 1015.2
20260905084830 26 121 4.8 4.8 0.00 0.00 0.00 89 1015.2
20260905084329 26 171 1.6 1.6 0.00 0.00 0.00 88 1015.1
20260905083829 26 145 3.2 3.2 0.00 0.00 0.00 88 1015.2
20260905083325 26 172 4.8 4.8 0.00 0.00 0.00 88 1015.3
20260905082820 26 178 3.2 3.2 0.00 0.00 0.00 88 1015.2
20260905082316 26 196 4.8 4.8 0.00 0.00 0.00 87 1015.1
20260905081811 26 113 6.4 9.7 0.00 0.00 0.00 87 1015.3
20260905081306 26 199 3.2 3.2 0.00 0.00 0.00 87 1015.4
20260905080805 26 166 4.8 4.8 0.00 0.00 0.00 87 1015.2
20260905080300 26 166 4.8 4.8 0.00 0.00 0.00 87 1015.3
20260905075758 26 145 3.2 4.8 0.00 0.00 0.00 87 1015.3
20260905075253 26 191 4.8 6.4 0.00 0.00 0.00 87 1015.5
20260905074752 26 204 8.0 12.9 0.00 0.00 0.00 87 1015.3
20260905074248 26 187 8.0 11.3 0.00 0.00 0.00 86 1015.4
20260905073743 26 176 4.8 4.8 0.00 0.00 0.00 86 1015.4
20260905073239 26 168 4.8 4.8 0.00 0.00 0.00 86 1015.5
20260905072738 26 161 9.7 11.3 0.00 0.00 0.00 85 1015.5
20260905072234 26 189 9.7 12.9 0.00 0.00 0.00 85 1015.5
20260905071730 26 114 6.4 9.7 0.00 0.00 0.00 85 1015.7
20260905071226 26 175 8.0 11.3 0.00 0.00 0.00 85 1015.7
20260905070721 26 168 3.2 3.2 0.00 0.00 0.00 85 1015.5
20260905070217 26 168 4.8 9.7 0.00 0.00 0.00 85 1015.7
20260905065715 26 191 6.4 6.4 0.00 0.00 0.00 84 1015.8
20260905065210 26 141 3.2 4.8 0.00 0.00 0.00 84 1015.6
20260905064705 26 149 4.8 4.8 0.00 0.00 0.00 83 1015.8
20260905064201 26 194 4.8 4.8 0.00 0.00 0.00 83 1015.7
20260905063659 26 174 6.4 6.4 0.00 0.00 0.00 83 1015.7
20260905063155 26 133 4.8 4.8 0.00 0.00 0.00 82 1015.8
20260905062651 26 144 6.4 6.4 0.00 0.00 0.00 82 1015.8
20260905062150 26 141 4.8 4.8 0.00 0.00 0.00 81 1015.8
20260905061644 26 109 4.8 6.4 0.00 0.00 0.00 81 1015.8
20260905061138 26 156 3.2 4.8 0.00 0.00 0.00 80 1015.8
20260905060634 26 140 8.0 9.7 0.00 0.00 0.00 80 1016.0
20260905060131 27 146 3.2 3.2 0.00 0.00 0.00 80 1015.8
20260905055628 27 149 3.2 3.2 0.00 0.00 0.00 80 1016.0
20260905055124 27 118 4.8 4.8 0.00 0.00 0.00 79 1015.8
20260905054620 27 122 6.4 6.4 0.00 0.00 0.00 79 1015.7
20260905054115 27 169 6.4 9.7 0.00 0.00 0.00 78 1015.8
20260905053615 27 99 6.4 9.7 0.00 0.00 0.00 78 1015.9
20260905053110 27 169 4.8 4.8 0.00 0.00 0.00 78 1015.7
20260905052609 27 152 4.8 6.4 0.00 0.00 0.00 77 1015.9
20260905052104 27 171 6.4 9.7 0.00 0.00 0.00 77 1015.8
20260905051600 27 106 3.2 4.8 0.00 0.00 0.00 77 1015.9
20260905051056 27 141 4.8 6.4 0.00 0.00 0.00 76 1016.1
20260905050552 27 130 4.8 4.8 0.00 0.00 0.00 76 1016.0
20260905050048 27 154 9.7 11.3 0.00 0.15 0.15 75 1016.0
20260905045543 27 176 3.2 4.8 0.00 0.15 0.15 76 1015.8
20260905045038 27 129 4.8 4.8 0.00 0.15 0.15 75 1016.0
20260905044532 27 107 8.0 11.3 0.00 0.15 0.15 75 1016.0
20260905044027 27 169 1.6 1.6 0.00 0.15 0.15 75 1015.8
20260905043526 27 155 4.8 9.7 0.00 0.15 0.15 75 1015.8
20260905043016 27 155 6.4 6.4 0.00 0.15 0.15 75 1015.7
20260905042514 27 110 4.8 6.4 0.00 0.15 0.15 75 1016.0
20260905042004 27 113 3.2 4.8 0.00 0.15 0.15 75 1015.9
20260905041459 27 143 6.4 9.7 0.00 0.15 0.15 75 1015.8
20260905040954 27 115 9.7 11.3 0.00 0.15 0.15 75 1015.9
20260905040448 27 151 3.2 9.7 0.00 0.15 0.15 74 1015.7
20260905035947 27 127 3.2 4.8 0.00 0.15 0.15 74 1015.8
20260905035442 28 131 0.0 0.0 0.00 0.15 0.15 74 1015.8
20260905034940 28 131 3.2 4.8 0.00 0.15 0.15 73 1015.7